TimeCST,TemperatureF,Dew PointF,Humidity,Sea Level PressureIn,VisibilityMPH,Wind Direction,Wind SpeedMPH,Gust SpeedMPH,PrecipitationIn,Events,Conditions,WindDirDegrees,DateUTC
12:55 AM,28.0,24.1,85,29.88,3.0,North,11.5,19.6,N/A,,Overcast,350,2013-02-26 06:55:00
1:55 AM,27.0,23.0,85,29.88,3.0,North,11.5,-,N/A,,Overcast,10,2013-02-26 07:55:00
2:55 AM,27.0,23.0,85,29.85,3.0,NNW,12.7,-,N/A,,Overcast,340,2013-02-26 08:55:00
3:45 AM,26.6,23.0,86,29.82,2.5,North,12.7,-,N/A,,Overcast,350,2013-02-26 09:45:00
3:55 AM,26.1,23.0,88,29.86,2.5,NNW,10.4,-,N/A,,Overcast,340,2013-02-26 09:55:00
4:55 AM,26.1,23.0,88,29.85,2.0,North,13.8,-,N/A,,Overcast,350,2013-02-26 10:55:00
5:13 AM,26.6,23.0,86,29.80,2.5,NNW,13.8,-,N/A,,Overcast,340,2013-02-26 11:13:00
5:33 AM,26.6,23.0,86,29.80,2.0,North,12.7,-,N/A,,Overcast,350,2013-02-26 11:33:00
5:55 AM,26.6,23.0,86,29.79,2.0,North,12.7,-,N/A,,Overcast,360,2013-02-26 11:55:00
6:02 AM,26.6,23.0,86,29.79,2.0,North,13.8,-,N/A,,Overcast,360,2013-02-26 12:02:00
6:55 AM,26.1,23.0,88,29.83,2.0,North,16.1,-,N/A,,Overcast,360,2013-02-26 12:55:00
7:07 AM,26.6,23.0,86,29.79,2.5,North,16.1,-,N/A,,Overcast,360,2013-02-26 13:07:00
7:25 AM,26.6,23.0,86,29.79,1.5,North,13.8,25.3,N/A,,Overcast,350,2013-02-26 13:25:00
7:55 AM,26.1,23.0,88,29.84,1.5,North,17.3,24.2,N/A,,Overcast,350,2013-02-26 13:55:00
8:18 AM,26.6,21.2,80,29.81,1.8,North,15.0,23.0,N/A,,Overcast,350,2013-02-26 14:18:00
8:51 AM,26.6,21.2,80,29.81,2.0,North,17.3,-,N/A,,Overcast,350,2013-02-26 14:51:00
8:55 AM,26.1,21.9,84,29.86,2.0,North,18.4,-,N/A,,Overcast,350,2013-02-26 14:55:00
9:15 AM,26.6,23.0,86,29.82,1.8,NNW,16.1,-,N/A,,Overcast,340,2013-02-26 15:15:00
9:25 AM,26.6,21.2,80,29.82,2.0,North,17.3,24.2,N/A,,Overcast,350,2013-02-26 15:25:00
9:55 AM,26.1,21.9,84,29.86,2.0,NNW,17.3,24.2,N/A,,Mostly Cloudy,340,2013-02-26 15:55:00
10:09 AM,26.6,21.2,80,29.83,2.0,NNW,17.3,-,N/A,,Haze,340,2013-02-26 16:09:00
10:55 AM,28.0,23.0,81,29.86,2.5,North,15.0,23.0,N/A,,Haze,350,2013-02-26 16:55:00
11:55 AM,30.0,24.1,79,29.84,2.5,North,12.7,-,N/A,,Haze,360,2013-02-26 17:55:00
12:08 PM,30.2,24.8,80,29.80,3.0,North,13.8,20.7,N/A,,Haze,360,2013-02-26 18:08:00
12:33 PM,30.2,24.8,80,29.80,2.5,NNW,13.8,-,N/A,,Haze,340,2013-02-26 18:33:00
12:55 PM,30.9,25.0,79,29.84,2.5,NNW,13.8,-,N/A,,Haze,330,2013-02-26 18:55:00
1:41 PM,30.2,24.8,80,29.79,2.5,NNW,13.8,-,N/A,,Haze,340,2013-02-26 19:41:00
1:55 PM,30.9,25.0,79,29.83,2.5,NNW,12.7,-,N/A,,Haze,330,2013-02-26 19:55:00
2:55 PM,30.9,25.0,79,29.83,2.5,NNW,15.0,-,N/A,,Haze,340,2013-02-26 20:55:00
3:13 PM,30.2,24.8,80,29.79,2.5,North,13.8,-,N/A,,Haze,350,2013-02-26 21:13:00
3:55 PM,30.9,25.0,79,29.84,2.5,NNW,16.1,-,N/A,,Haze,340,2013-02-26 21:55:00
4:38 PM,30.2,26.6,86,29.82,1.5,NNW,13.8,-,N/A,,Haze,340,2013-02-26 22:38:00
4:55 PM,30.9,26.1,82,29.86,1.0,NNW,12.7,-,0.00,Snow,Light Snow,330,2013-02-26 22:55:00
5:06 PM,30.2,26.6,86,29.82,0.8,NNW,11.5,-,0.00,Snow,Light Snow,340,2013-02-26 23:06:00
5:31 PM,30.2,26.6,86,29.82,1.0,NNW,9.2,19.6,0.00,Snow,Light Snow,340,2013-02-26 23:31:00
5:51 PM,30.2,26.6,86,29.83,1.5,North,16.1,-,0.00,,Overcast,350,2013-02-26 23:51:00
5:55 PM,30.0,26.1,85,29.88,1.5,North,13.8,-,0.00,,Overcast,350,2013-02-26 23:55:00
6:03 PM,30.2,26.6,86,29.84,1.2,North,13.8,-,N/A,,Overcast,350,2013-02-27 00:03:00
6:33 PM,30.2,26.6,86,29.86,1.5,NNW,10.4,-,0.00,Snow,Light Snow,340,2013-02-27 00:33:00
6:55 PM,30.0,27.0,88,29.91,1.0,NNW,10.4,-,0.00,Snow,Light Snow,330,2013-02-27 00:55:00
7:09 PM,28.4,26.6,93,29.87,0.8,NW,10.4,-,0.01,Snow,Light Snow,320,2013-02-27 01:09:00
7:55 PM,28.9,27.0,92,29.94,0.5,NNW,10.4,-,0.03,Fog-Snow,Snow,330,2013-02-27 01:55:00
8:27 PM,28.4,26.6,93,29.90,0.5,NW,9.2,-,0.02,Fog-Snow,Snow,320,2013-02-27 02:27:00
8:55 PM,28.9,27.0,92,29.95,0.5,NNW,10.4,-,0.04,Fog-Snow,Snow,330,2013-02-27 02:55:00
9:12 PM,28.4,26.6,93,29.91,0.5,NNW,8.1,-,0.01,Fog-Snow,Light Snow,340,2013-02-27 03:12:00
9:55 PM,28.4,26.6,93,29.92,0.5,NW,9.2,-,N/A,Fog-Snow,Light Snow,320,2013-02-27 03:55:00
10:15 PM,28.4,26.6,93,29.93,0.8,NNW,8.1,-,0.01,Snow,Light Snow,330,2013-02-27 04:15:00
10:23 PM,28.4,26.6,93,29.93,1.0,NNW,8.1,-,0.01,Snow,Light Snow,330,2013-02-27 04:23:00
10:35 PM,28.4,26.6,93,29.93,1.2,NNW,11.5,-,N/A,Snow,Light Snow,340,2013-02-27 04:35:00
10:48 PM,28.4,26.6,93,29.93,1.2,NW,9.2,-,0.01,Snow,Light Snow,320,2013-02-27 04:48:00
10:55 PM,28.9,26.1,89,29.98,1.8,NW,9.2,-,0.01,Snow,Light Snow,320,2013-02-27 04:55:00
11:19 PM,28.4,26.6,93,29.94,1.2,NW,9.2,-,0.00,Snow,Light Snow,320,2013-02-27 05:19:00
11:27 PM,28.4,26.6,93,29.94,0.8,NW,9.2,-,0.00,Snow,Light Snow,320,2013-02-27 05:27:00
11:55 PM,28.0,26.1,92,29.98,0.8,NNW,10.4,-,0.01,Snow,Light Snow,340,2013-02-27 05:55:00